DateTime,DeltaTime,Roll,TargetAngle,Position,Power
2022-06-03 10:24:43.676,0,-0.54,-6.47,10,53.1
2022-06-03 10:24:43.791,0.115006417036057,0.36,2.32,8,20.74
2022-06-03 10:24:43.906,0.230002775788307,-0.2,-6.13,5,61.33
2022-06-03 10:24:44.021,0.344999134540558,-0.35,-4.89,3,30.97
2022-06-03 10:24:44.135,0.45899972319603,-0.36,-4.37,0,24.79
2022-06-03 10:24:44.250,0.574006140232086,0.03,-1.11,1,-2.53
2022-06-03 10:24:44.364,0.688006728887558,-0.31,-5.58,2,33.14
2022-06-03 10:24:44.479,0.803003087639809,-0.21,-3.33,6,20.3
2022-06-03 10:24:44.589,0.913000479340553,-0.83,-8.73,8,69.49
2022-06-03 10:24:44.703,1.02700106799603,0.03,0.9,10,16.18
2022-06-03 10:24:44.819,1.14300325512886,-0.35,-5.92,7,70.97
2022-06-03 10:24:44.934,1.25799961388111,-0.41,-4.73,7,37.79
2022-06-03 10:24:45.048,1.37200020253658,-0.62,-6.21,4,51.79
2022-06-03 10:24:45.163,1.48700661957264,-0.48,-4.13,1,23.35
2022-06-03 10:24:45.278,1.60200297832489,-0.16,-2.16,1,5.89
2022-06-03 10:24:45.393,1.71699933707714,-0.56,-6.81,2,35.96
2022-06-03 10:24:45.507,1.83099992573261,-0.45,-4.09,5,21.99
2022-06-03 10:24:45.622,1.94600634276867,-0.68,-6.46,8,51.66
2022-06-03 10:24:45.737,2.06100270152092,0.4,3.24,10,8.78
2022-06-03 10:24:45.851,2.17500329017639,-0.27,-6.91,9,78.82
2022-06-03 10:24:45.966,2.28999964892864,-0.15,-2.95,7,37.62
2022-06-03 10:24:46.081,2.4050060659647,-0.39,-5.47,4,47.8
2022-06-03 10:24:46.195,2.51900665462017,-0.23,-3.12,1,19.26
2022-06-03 10:24:46.305,2.62900404632092,-0.0499999999999999,-2.37,1,8.17
2022-06-03 10:24:46.420,2.74400040507317,-0.34,-5.48,1,28.95
2022-06-03 10:24:46.535,2.85900682210922,-0.08,-2.11,3,8.61
2022-06-03 10:24:46.650,2.97400318086147,-0.5,-6.68,6,46.2
2022-06-03 10:24:46.765,3.08899953961372,0.43,2.73,8,3.68
2022-06-03 10:24:46.879,3.2030001282692,0.1,-4.07,10,56.37
2022-06-03 10:24:46.994,3.31800654530525,-0.13,-4.43,8,56.37
2022-06-03 10:24:47.109,3.4330029040575,-0.17,-3.75,6,39.84
2022-06-03 10:24:47.223,3.54700349271297,-0.08,-2.91,3,30.23
2022-06-03 10:24:47.338,3.66199985146523,0.1,-1.78,1,14.1
2022-06-03 10:24:47.452,3.7760004401207,-0.01,-3.47,1,18.43
2022-06-03 10:24:47.567,3.89100685715675,0.15,-1.72,2,10.46
2022-06-03 10:24:47.682,4.006003215909,-0.21,-5.32,5,36.04
2022-06-03 10:24:47.797,4.12099957466125,-0.0199999999999999,-2.18,8,29.98
2022-06-03 10:24:47.911,4.23500016331673,0.85,3.95,11,15.17
2022-06-03 10:24:48.022,4.34600338339806,-0.08,-7.33,8,90
2022-06-03 10:24:48.136,4.46000397205353,0.17,-1.18,7,21.9
2022-06-03 10:24:48.252,4.57600615918636,0,-3.72,4,42.44
2022-06-03 10:24:48.366,4.69000674784184,0.19,-1.46,2,15.07
2022-06-03 10:24:48.481,4.80500310659409,0.41,-0.5,1,7.64
2022-06-03 10:24:48.596,4.91999946534634,0.0800000000000001,-4.05,2,24.55
2022-06-03 10:24:48.710,5.03400005400181,0.28,-1.07,4,11.73
2022-06-03 10:24:48.825,5.14900647103786,-0.19,-5.72,7,47.9
2022-06-03 10:24:48.939,5.26300705969334,0.42,1.29,8,15.8
2022-06-03 10:24:49.054,5.37800341844559,0.96,2.92,9,18.48
2022-06-03 10:24:49.169,5.49299977719784,0.36,-4.23,8,60.49
2022-06-03 10:24:49.284,5.60800619423389,0.34,-1.78,6,31.6
2022-06-03 10:24:49.398,5.72200678288937,0.28,-2.19,3,29.03
2022-06-03 10:24:49.513,5.83700314164162,0.39,-1.01,2,10.95
2022-06-03 10:24:49.628,5.95199950039387,0.65,0.57,3,3.89
2022-06-03 10:24:49.738,6.06200695037842,0.26,-3.69,3,33.73
2022-06-03 10:24:49.852,6.17600753903389,0.46,-0.41,6,11.02
2022-06-03 10:24:49.967,6.29100389778614,-0.0499999999999999,-5.33,7,55.28
2022-06-03 10:24:50.082,6.40600025653839,0.37,0.25,9,18.93
2022-06-03 10:24:50.196,6.52000084519386,0.93,2.92,8,22.17
2022-06-03 10:24:50.311,6.63500726222992,0.58,-2.35,7,44.99
2022-06-03 10:24:50.426,6.75000362098217,0.39,-2.34,4,35.26
2022-06-03 10:24:50.541,6.86499997973442,0.2,-3.06,1,26.05
2022-06-03 10:24:50.656,6.98000639677048,0.35,-1.04,1,4.58
2022-06-03 10:24:50.771,7.09500275552273,0.72,1.38,2,-0.78
2022-06-03 10:24:50.884,7.20800757408142,0.29,-3.81,3,33.36
2022-06-03 10:24:50.999,7.32300393283367,0.42,-0.79,6,15.64
2022-06-03 10:24:51.114,7.43800029158592,0.17,-3.47,7,47.07
2022-06-03 10:24:51.229,7.55300670862198,0.14,-2.54,7,35.31
2022-06-03 10:24:51.339,7.66300410032272,0.69,2,6,13.4
2022-06-03 10:24:51.454,7.77800045907497,0.58,-1.32,7,31.37
2022-06-03 10:24:51.569,7.89300687611103,0.31,-2.95,4,42.2
2022-06-03 10:24:51.683,8.0070074647665,0.04,-4.03,2,30.06
2022-06-03 10:24:51.799,8.12299959361553,-0.0299999999999999,-3.37,2,19.95
2022-06-03 10:24:51.913,8.237000182271,0.64,2.3,3,-4.42
2022-06-03 10:24:52.027,8.35100077092648,0.64,-0.54,4,22.24
2022-06-03 10:24:52.142,8.46600718796253,0.24,-3.85,6,39.05
2022-06-03 10:24:52.257,8.58100354671478,0.48,-0.11,7,25.42
2022-06-03 10:24:52.371,8.69500413537025,0.0700000000000001,-4.51,7,55.26
2022-06-03 10:24:52.486,8.81000049412251,0.29,-0.91,6,24.48
2022-06-03 10:24:52.601,8.92500691115856,0.43,-0.75,4,24.11
2022-06-03 10:24:52.715,9.03900749981403,0.41,-1.5,3,20
2022-06-03 10:24:52.831,9.15499962866306,0.32,-2.22,3,20.73
2022-06-03 10:24:52.945,9.26900021731853,0.05,-3.95,3,30.24
2022-06-03 10:24:53.055,9.37900766730309,-0.26,-5.29,4,35.33
2022-06-03 10:24:53.170,9.49400402605534,0.29,0.5,5,10.37
2022-06-03 10:24:53.285,9.60900038480759,0.54,0.18,6,23.56
2022-06-03 10:24:53.399,9.72300097346306,0.29,-3.03,7,43.34
2022-06-03 10:24:53.514,9.83800739049911,0.0900000000000001,-3.5,7,45.97
2022-06-03 10:24:53.629,9.95300374925137,-0.0399999999999999,-3.7,5,39.78
2022-06-03 10:24:53.743,10.0670043379068,0.05,-2.37,4,23.82
2022-06-03 10:24:53.858,10.1820006966591,0.25,-1.17,4,17.84
2022-06-03 10:24:53.974,10.2980028837919,0.0800000000000001,-3.4,3,32.38
2022-06-03 10:24:54.088,10.4120034724474,0.02,-3.16,3,23.91
2022-06-03 10:24:54.203,10.5269998311996,0.0600000000000001,-2.52,4,22.91
2022-06-03 10:24:54.316,10.6400046497583,-0.37,-6.26,7,47.97
2022-06-03 10:24:54.432,10.7560068368912,-0.0399999999999999,-1.63,6,29.74
2022-06-03 10:24:54.546,10.8700074255466,0.05,-2.4,6,31.52
2022-06-03 10:24:54.661,10.9850037842989,0.05,-2.73,5,34.21
2022-06-03 10:24:54.772,11.0960070043802,-0.19,-4.76,4,39.71
2022-06-03 10:24:54.886,11.2100075930357,-0.44,-5.69,5,38.92
2022-06-03 10:24:55.001,11.3250039517879,-0.56,-5.57,3,44.31
2022-06-03 10:24:55.115,11.4390045404434,-0.1,-1.32,3,12.83
2022-06-03 10:24:55.229,11.5530051290989,-0.0599999999999999,-3.01,4,29.91
2022-06-03 10:24:55.345,11.6690073162317,-0.38,-5.79,5,47.14
2022-06-03 10:24:55.459,11.7830079048872,-0.26,-3.42,6,29.27
2022-06-03 10:24:55.574,11.8980042636395,-0.45,-5.47,6,47.1
2022-06-03 10:24:55.689,12.0130006223917,-0.23,-2.82,5,29.11
2022-06-03 10:24:55.804,12.1280070394278,-0.0599999999999999,-2.47,5,26.62
2022-06-03 10:24:55.918,12.2420076280832,-0.09,-3.37,4,33.59
2022-06-03 10:24:56.033,12.3570039868355,-0.16,-3.9,4,30.8
2022-06-03 10:24:56.148,12.4720003455877,-0.32,-4.85,5,36.9
2022-06-03 10:24:56.263,12.5870067626238,-0.63,-6.65,4,50.48
2022-06-03 10:24:56.377,12.7010073512793,-0.21,-1.92,5,14.31
2022-06-03 10:24:56.492,12.8160037100315,0.0800000000000001,-1.4,5,24.8
2022-06-03 10:24:56.603,12.9270069301128,-0.1,-4.13,5,38.39
2022-06-03 10:24:56.717,13.0410075187683,-0.28,-4.76,5,38.82
2022-06-03 10:24:56.832,13.1560038775206,-0.54,-6.1,4,45.57
2022-06-03 10:24:56.947,13.2710002362728,-0.39,-3.73,6,24.14
2022-06-03 10:24:57.061,13.3850008249283,-0.1,-2.06,4,30.91
2022-06-03 10:24:57.175,13.4990014135838,-0.28,-4.77,4,34.77
2022-06-03 10:24:57.290,13.6140078306198,-0.27,-3.92,4,30.35
2022-06-03 10:24:57.404,13.7280084192753,-0.46,-5.48,4,40.01
2022-06-03 10:24:57.520,13.8440005481243,-0.64,-6.12,5,42.02
2022-06-03 10:24:57.634,13.9580011367798,-0.26,-2.3,5,28
2022-06-03 10:24:57.749,14.0730075538158,-0.16,-3.12,6,36.5
2022-06-03 10:24:57.864,14.1880039125681,-0.29,-4.59,5,48.51
2022-06-03 10:24:57.979,14.3030002713203,-0.5,-5.75,4,39.87
2022-06-03 10:24:58.093,14.4170008599758,-0.65,-6.05,5,37.17
2022-06-03 10:24:58.208,14.5320072770119,-0.32,-2.71,4,27.31
2022-06-03 10:24:58.318,14.6420046687126,-0.09,-2.3,4,24
2022-06-03 10:24:58.433,14.7570010274649,-0.36,-5.49,4,42.38
2022-06-03 10:24:58.548,14.8720074445009,-0.31,-3.87,5,30.99
2022-06-03 10:24:58.663,14.9870038032532,-0.54,-5.94,5,49.16
2022-06-03 10:24:58.777,15.1010043919086,-0.18,-2.07,4,21.04
2022-06-03 10:24:58.892,15.2160007506609,-0.0599999999999999,-2.62,6,24.51
2022-06-03 10:24:59.006,15.3300013393164,-0.24,-4.64,4,45.8
2022-06-03 10:24:59.121,15.4450077563524,-0.3,-4.34,4,27.75
2022-06-03 10:24:59.236,15.5600041151047,-0.63,-6.76,5,43.65
2022-06-03 10:24:59.351,15.6750004738569,-0.27,-2.33,4,24.33
2022-06-03 10:24:59.465,15.7890010625124,-0.07,-2.37,5,24.68
2022-06-03 10:24:59.579,15.9030016511679,-0.31,-5.13,5,45.32
2022-06-03 10:24:59.696,16.0199996083975,-0.42,-5,4,36.75
2022-06-03 10:24:59.809,16.1330044269562,-0.6,-5.99,5,37.78
2022-06-03 10:24:59.924,16.2480007857084,-0.26,-2.44,4,25.95
2022-06-03 10:25:00.033,16.3570024073124,-0.25,-3.82,4,31.86
2022-06-03 10:25:00.149,16.4730045944452,-0.33,-4.52,6,35.59
2022-06-03 10:25:00.264,16.5880009531975,-0.57,-6.12,5,53.45
2022-06-03 10:25:00.378,16.702001541853,-0.48,-4.34,4,30.84
2022-06-03 10:25:00.493,16.817007958889,-0.01,-0.98,4,13.5
2022-06-03 10:25:00.608,16.9320043176413,-0.19,-4.46,5,37.13
2022-06-03 10:25:00.722,17.0460049062967,-0.12,-3.1,5,31.53
2022-06-03 10:25:00.837,17.161001265049,-0.5,-6.46,4,49.52
2022-06-03 10:25:00.951,17.2750018537045,-0.22,-2.59,4,17.93
2022-06-03 10:25:01.066,17.3900082707405,-0.0399999999999999,-2.29,4,23.44
2022-06-03 10:25:01.181,17.5050046294928,-0.31,-5.26,5,39.24
2022-06-03 10:25:01.296,17.620000988245,-0.29,-3.93,5,34.58
2022-06-03 10:25:01.411,17.7350074052811,-0.48,-5.57,5,44
2022-06-03 10:25:01.525,17.8490079939365,0.01,-0.75,5,18.73
2022-06-03 10:25:01.640,17.9640043526888,-0.0499999999999999,-3.44,5,39
2022-06-03 10:25:01.750,18.0740017443895,-0.11,-3.6,5,37.08
2022-06-03 10:25:01.865,18.1890081614256,-0.46,-6.24,4,50.83
2022-06-03 10:25:01.979,18.3029986917973,-0.25,-2.92,4,19.87
2022-06-03 10:25:02.094,18.4180051088333,-0.0199999999999999,-2.05,4,21.83
2022-06-03 10:25:02.209,18.5330014675856,-0.34,-5.61,4,41.31
2022-06-03 10:25:02.324,18.6480078846216,-0.34,-4.18,6,30.41
2022-06-03 10:25:02.439,18.7630042433739,-0.55,-5.93,3,51.77
2022-06-03 10:25:02.553,18.8770048320293,-0.0599999999999999,-1.05,5,4.61
2022-06-03 10:25:02.668,18.9920011907816,-0.21,-4.38,5,42
